owner,sensor,date,latitude,longitude,vertical_datum,wind_speed,wind_to_direction,wind_speed_of_gust,qcFlag 
WAVCIS,ioos:station:WAVCIS:CSI16:1,2009-09-01T00:00:00Z,29.4012,-89.0355,10.0,1.995,128.0,,'11111222,11111222,99999999' 
WAVCIS,ioos:station:WAVCIS:CSI16:1,2009-09-01T01:00:00Z,29.4012,-89.0355,10.0,1.594,179.0,,'11111222,11111222,99999999' 
WAVCIS,ioos:station:WAVCIS:CSI16:1,2009-09-01T02:00:00Z,29.4012,-89.0355,10.0,0.592,170.0,,'11111222,11111222,99999999' 
WAVCIS,ioos:station:WAVCIS:CSI16:1,2009-09-01T03:00:00Z,29.4012,-89.0355,10.0,0.797,95.0,,'11111222,11111222,99999999' 
WAVCIS,ioos:station:WAVCIS:CSI16:1,2009-09-01T04:00:00Z,29.4012,-89.0355,10.0,1.93,72.0,,'11111222,11111222,99999999' 
WAVCIS,ioos:station:WAVCIS:CSI16:1,2009-09-01T05:00:00Z,29.4012,-89.0355,10.0,1.892,13.0,,'11111222,11111222,99999999' 
WAVCIS,ioos:station:WAVCIS:CSI16:1,2009-09-01T06:00:00Z,29.4012,-89.0355,10.0,2.443,14.0,,'11111222,11111222,99999999' 
WAVCIS,ioos:station:WAVCIS:CSI16:1,2009-09-01T07:00:00Z,29.4012,-89.0355,10.0,1.89,23.0,,'11111222,11111222,99999999' 
WAVCIS,ioos:station:WAVCIS:CSI16:1,2009-09-01T08:00:00Z,29.4012,-89.0355,10.0,2.443,50.0,,'11111222,11111222,99999999' 
WAVCIS,ioos:station:WAVCIS:CSI16:1,2009-09-01T09:00:00Z,29.4012,-89.0355,10.0,3.663,64.0,,'11111222,11111222,99999999' 
WAVCIS,ioos:station:WAVCIS:CSI16:1,2009-09-01T10:00:00Z,29.4012,-89.0355,10.0,2.323,64.0,,'11111222,11111222,99999999' 
WAVCIS,ioos:station:WAVCIS:CSI16:1,2009-09-01T11:00:00Z,29.4012,-89.0355,10.0,2.929,47.0,,'11111222,11111222,99999999' 
WAVCIS,ioos:station:WAVCIS:CSI16:1,2009-09-01T12:00:00Z,29.4012,-89.0355,10.0,3.935,58.0,,'11111222,11111222,99999999' 
WAVCIS,ioos:station:WAVCIS:CSI16:1,2009-09-01T13:00:00Z,29.4012,-89.0355,10.0,3.598,33.0,,'11111222,11111222,99999999' 
WAVCIS,ioos:station:WAVCIS:CSI16:1,2009-09-01T14:00:00Z,29.4012,-89.0355,10.0,4.179,21.0,,'11111222,11111222,99999999' 
WAVCIS,ioos:station:WAVCIS:CSI16:1,2009-09-01T15:00:00Z,29.4012,-89.0355,10.0,3.3,25.0,,'11111222,11111222,99999999' 
WAVCIS,ioos:station:WAVCIS:CSI16:1,2009-09-01T16:00:00Z,29.4012,-89.0355,10.0,2.723,21.0,,'11111222,11111222,99999999' 
WAVCIS,ioos:station:WAVCIS:CSI16:1,2009-09-01T17:00:00Z,29.4012,-89.0355,10.0,2.568,22.0,,'11111222,11111222,99999999' 
WAVCIS,ioos:station:WAVCIS:CSI16:1,2009-09-01T18:00:00Z,29.4012,-89.0355,10.0,2.545,10.0,,'11111222,11111222,99999999' 
WAVCIS,ioos:station:WAVCIS:CSI16:1,2009-09-01T19:00:00Z,29.4012,-89.0355,10.0,3.211,6.0,,'11111222,11111222,99999999' 
WAVCIS,ioos:station:WAVCIS:CSI16:1,2009-09-01T20:00:00Z,29.4012,-89.0355,10.0,2.952,10.0,,'11111222,11111222,99999999' 
WAVCIS,ioos:station:WAVCIS:CSI16:1,2009-09-01T21:00:00Z,29.4012,-89.0355,10.0,2.932,16.0,,'11111222,11111222,99999999' 
WAVCIS,ioos:station:WAVCIS:CSI16:1,2009-09-01T22:00:00Z,29.4012,-89.0355,10.0,2.87,6.0,,'11111222,11111222,99999999' 
WAVCIS,ioos:station:WAVCIS:CSI16:1,2009-09-01T23:00:00Z,29.4012,-89.0355,10.0,2.122,9.0,,'11111222,11111222,99999999' 
WAVCIS,ioos:station:WAVCIS:CSI16:1,2009-09-02T00:00:00Z,29.4012,-89.0355,10.0,1.62,6.0,,'11111222,11111222,99999999' 
WAVCIS,ioos:station:WAVCIS:CSI16:1,2009-09-02T01:00:00Z,29.4012,-89.0355,10.0,1.035,14.0,,'11111222,11111222,99999999' 
WAVCIS,ioos:station:WAVCIS:CSI16:1,2009-09-02T02:00:00Z,29.4012,-89.0355,10.0,2.166,329.0,,'11111222,11111222,99999999' 
WAVCIS,ioos:station:WAVCIS:CSI16:1,2009-09-02T03:00:00Z,29.4012,-89.0355,10.0,2.869,327.0,,'11111222,11111222,99999999' 
WAVCIS,ioos:station:WAVCIS:CSI16:1,2009-09-02T04:00:00Z,29.4012,-89.0355,10.0,3.115,345.0,,'11111222,11111222,99999999' 
WAVCIS,ioos:station:WAVCIS:CSI16:1,2009-09-02T05:00:00Z,29.4012,-89.0355,10.0,4.113,349.0,,'11111222,11111222,99999999' 
WAVCIS,ioos:station:WAVCIS:CSI16:1,2009-09-02T06:00:00Z,29.4012,-89.0355,10.0,4.485,359.0,,'11111222,11111222,99999999' 
WAVCIS,ioos:station:WAVCIS:CSI16:1,2009-09-02T07:00:00Z,29.4012,-89.0355,10.0,3.036,26.0,,'11111222,11111222,99999999' 
WAVCIS,ioos:station:WAVCIS:CSI16:1,2009-09-02T08:00:00Z,29.4012,-89.0355,10.0,3.146,37.0,,'11111222,11111222,99999999' 
WAVCIS,ioos:station:WAVCIS:CSI16:1,2009-09-02T09:00:00Z,29.4012,-89.0355,10.0,3.564,25.0,,'11111222,11111222,99999999' 
WAVCIS,ioos:station:WAVCIS:CSI16:1,2009-09-02T10:00:00Z,29.4012,-89.0355,10.0,4.314,19.0,,'11111222,11111222,99999999' 
WAVCIS,ioos:station:WAVCIS:CSI16:1,2009-09-02T11:00:00Z,29.4012,-89.0355,10.0,5.723,23.0,,'11111222,11111222,99999999' 
WAVCIS,ioos:station:WAVCIS:CSI16:1,2009-09-02T12:00:00Z,29.4012,-89.0355,10.0,4.611,28.0,,'11111222,11111222,99999999' 
WAVCIS,ioos:station:WAVCIS:CSI16:1,2009-09-02T13:00:00Z,29.4012,-89.0355,10.0,5.141,28.0,,'11111222,11111222,99999999' 
WAVCIS,ioos:station:WAVCIS:CSI16:1,2009-09-02T14:00:00Z,29.4012,-89.0355,10.0,5.368,27.0,,'11111222,11111222,99999999' 
WAVCIS,ioos:station:WAVCIS:CSI16:1,2009-09-02T15:00:00Z,29.4012,-89.0355,10.0,4.121,27.0,,'11111222,11111222,99999999' 
WAVCIS,ioos:station:WAVCIS:CSI16:1,2009-09-02T16:00:00Z,29.4012,-89.0355,10.0,3.607,16.0,,'11111222,11111222,99999999' 
WAVCIS,ioos:station:WAVCIS:CSI16:1,2009-09-02T17:00:00Z,29.4012,-89.0355,10.0,2.872,23.0,,'11111222,11111222,99999999' 
WAVCIS,ioos:station:WAVCIS:CSI16:1,2009-09-02T18:00:00Z,29.4012,-89.0355,10.0,3.104,15.0,,'11111222,11111222,99999999' 
WAVCIS,ioos:station:WAVCIS:CSI16:1,2009-09-02T19:00:00Z,29.4012,-89.0355,10.0,3.831,18.0,,'11111222,11111222,99999999' 
WAVCIS,ioos:station:WAVCIS:CSI16:1,2009-09-02T20:00:00Z,29.4012,-89.0355,10.0,5.927,16.0,,'11111222,11111222,99999999' 
WAVCIS,ioos:station:WAVCIS:CSI16:1,2009-09-02T21:00:00Z,29.4012,-89.0355,10.0,2.846,10.0,,'11111222,11111222,99999999' 
WAVCIS,ioos:station:WAVCIS:CSI16:1,2009-09-02T22:00:00Z,29.4012,-89.0355,10.0,2.092,14.0,,'11111222,11111222,99999999' 
WAVCIS,ioos:station:WAVCIS:CSI16:1,2009-09-02T23:00:00Z,29.4012,-89.0355,10.0,1.373,16.0,,'11111222,11111222,99999999' 
WAVCIS,ioos:station:WAVCIS:CSI16:1,2009-09-03T00:00:00Z,29.4012,-89.0355,10.0,2.576,337.0,,'11111222,11111222,99999999' 
WAVCIS,ioos:station:WAVCIS:CSI16:1,2009-09-03T01:00:00Z,29.4012,-89.0355,10.0,2.873,344.0,,'11111222,11111222,99999999' 
WAVCIS,ioos:station:WAVCIS:CSI16:1,2009-09-03T02:00:00Z,29.4012,-89.0355,10.0,0.98,23.0,,'11111222,11111222,99999999' 
WAVCIS,ioos:station:WAVCIS:CSI16:1,2009-09-03T03:00:00Z,29.4012,-89.0355,10.0,0.93,33.0,,'11111222,11111222,99999999' 
WAVCIS,ioos:station:WAVCIS:CSI16:1,2009-09-03T04:00:00Z,29.4012,-89.0355,10.0,1.887,74.0,,'11111222,11111222,99999999' 
WAVCIS,ioos:station:WAVCIS:CSI16:1,2009-09-03T05:00:00Z,29.4012,-89.0355,10.0,2.348,69.0,,'11111222,11111222,99999999' 
WAVCIS,ioos:station:WAVCIS:CSI16:1,2009-09-03T06:00:00Z,29.4012,-89.0355,10.0,1.726,24.0,,'11111222,11111222,99999999' 
WAVCIS,ioos:station:WAVCIS:CSI16:1,2009-09-03T07:00:00Z,29.4012,-89.0355,10.0,2.029,346.0,,'11111222,11111222,99999999' 
WAVCIS,ioos:station:WAVCIS:CSI16:1,2009-09-03T08:00:00Z,29.4012,-89.0355,10.0,5.033,21.0,,'11111222,11111222,99999999' 
WAVCIS,ioos:station:WAVCIS:CSI16:1,2009-09-03T09:00:00Z,29.4012,-89.0355,10.0,2.982,19.0,,'11111222,11111222,99999999' 
WAVCIS,ioos:station:WAVCIS:CSI16:1,2009-09-03T10:00:00Z,29.4012,-89.0355,10.0,2.353,53.0,,'11111222,11111222,99999999' 
WAVCIS,ioos:station:WAVCIS:CSI16:1,2009-09-03T11:00:00Z,29.4012,-89.0355,10.0,2.463,29.0,,'11111222,11111222,99999999' 
WAVCIS,ioos:station:WAVCIS:CSI16:1,2009-09-03T12:00:00Z,29.4012,-89.0355,10.0,3.453,62.0,,'11111222,11111222,99999999' 
WAVCIS,ioos:station:WAVCIS:CSI16:1,2009-09-03T13:00:00Z,29.4012,-89.0355,10.0,2.56,57.0,,'11111222,11111222,99999999' 
WAVCIS,ioos:station:WAVCIS:CSI16:1,2009-09-03T14:00:00Z,29.4012,-89.0355,10.0,2.97,46.0,,'11111222,11111222,99999999' 
WAVCIS,ioos:station:WAVCIS:CSI16:1,2009-09-03T15:00:00Z,29.4012,-89.0355,10.0,3.54,61.0,,'11111222,11111222,99999999' 
WAVCIS,ioos:station:WAVCIS:CSI16:1,2009-09-03T16:00:00Z,29.4012,-89.0355,10.0,3.234,47.0,,'11111222,11111222,99999999' 
WAVCIS,ioos:station:WAVCIS:CSI16:1,2009-09-03T17:00:00Z,29.4012,-89.0355,10.0,3.374,36.0,,'11111222,11111222,99999999' 
WAVCIS,ioos:station:WAVCIS:CSI16:1,2009-09-03T18:00:00Z,29.4012,-89.0355,10.0,3.449,53.0,,'11111222,11111222,99999999' 
WAVCIS,ioos:station:WAVCIS:CSI16:1,2009-09-03T19:00:00Z,29.4012,-89.0355,10.0,4.847,57.0,,'11111222,11111222,99999999' 
WAVCIS,ioos:station:WAVCIS:CSI16:1,2009-09-03T20:00:00Z,29.4012,-89.0355,10.0,4.209,29.0,,'11111222,11111222,99999999' 
WAVCIS,ioos:station:WAVCIS:CSI16:1,2009-09-03T21:00:00Z,29.4012,-89.0355,10.0,3.62,32.0,,'11111222,11111222,99999999' 
WAVCIS,ioos:station:WAVCIS:CSI16:1,2009-09-03T22:00:00Z,29.4012,-89.0355,10.0,4.216,31.0,,'11111222,11111222,99999999' 
WAVCIS,ioos:station:WAVCIS:CSI16:1,2009-09-03T23:00:00Z,29.4012,-89.0355,10.0,4.134,30.0,,'11111222,11111222,99999999' 
WAVCIS,ioos:station:WAVCIS:CSI16:1,2009-09-04T00:00:00Z,29.4012,-89.0355,10.0,4.31,57.0,,'11111222,11111222,99999999' 
WAVCIS,ioos:station:WAVCIS:CSI16:1,2009-09-04T01:00:00Z,29.4012,-89.0355,10.0,6.042,62.0,,'11111222,11111222,99999999' 
WAVCIS,ioos:station:WAVCIS:CSI16:1,2009-09-04T02:00:00Z,29.4012,-89.0355,10.0,4.95,79.0,,'11111222,11111222,99999999' 
WAVCIS,ioos:station:WAVCIS:CSI16:1,2009-09-04T03:00:00Z,29.4012,-89.0355,10.0,4.758,79.0,,'11111222,11111222,99999999' 
WAVCIS,ioos:station:WAVCIS:CSI16:1,2009-09-04T04:00:00Z,29.4012,-89.0355,10.0,7.1,134.0,,'11111222,11111222,99999999' 
WAVCIS,ioos:station:WAVCIS:CSI16:1,2009-09-04T05:00:00Z,29.4012,-89.0355,10.0,5.091,132.0,,'11111222,11111222,99999999' 
WAVCIS,ioos:station:WAVCIS:CSI16:1,2009-09-04T06:00:00Z,29.4012,-89.0355,10.0,4.3,78.0,,'11111222,11111222,99999999' 
WAVCIS,ioos:station:WAVCIS:CSI16:1,2009-09-04T07:00:00Z,29.4012,-89.0355,10.0,2.835,53.0,,'11111222,11111222,99999999' 
WAVCIS,ioos:station:WAVCIS:CSI16:1,2009-09-04T08:00:00Z,29.4012,-89.0355,10.0,4.599,346.0,,'11111222,11111222,99999999' 
WAVCIS,ioos:station:WAVCIS:CSI16:1,2009-09-04T09:00:00Z,29.4012,-89.0355,10.0,5.012,85.0,,'11111222,11111222,99999999' 
WAVCIS,ioos:station:WAVCIS:CSI16:1,2009-09-04T10:00:00Z,29.4012,-89.0355,10.0,1.688,80.0,,'11111222,11111222,99999999' 
WAVCIS,ioos:station:WAVCIS:CSI16:1,2009-09-04T11:00:00Z,29.4012,-89.0355,10.0,4.466,305.0,,'11111222,11111222,99999999' 
WAVCIS,ioos:station:WAVCIS:CSI16:1,2009-09-04T12:00:00Z,29.4012,-89.0355,10.0,1.483,77.0,,'11111222,11111222,99999999' 
WAVCIS,ioos:station:WAVCIS:CSI16:1,2009-09-04T13:00:00Z,29.4012,-89.0355,10.0,1.901,95.0,,'11111222,11111222,99999999' 
WAVCIS,ioos:station:WAVCIS:CSI16:1,2009-09-04T14:00:00Z,29.4012,-89.0355,10.0,7.43,14.0,,'11111222,11111222,99999999' 
WAVCIS,ioos:station:WAVCIS:CSI16:1,2009-09-04T15:00:00Z,29.4012,-89.0355,10.0,3.26,37.0,,'11111222,11111222,99999999' 
WAVCIS,ioos:station:WAVCIS:CSI16:1,2009-09-04T16:00:00Z,29.4012,-89.0355,10.0,4.564,63.0,,'11111222,11111222,99999999' 
WAVCIS,ioos:station:WAVCIS:CSI16:1,2009-09-04T17:00:00Z,29.4012,-89.0355,10.0,4.051,34.0,,'11111222,11111222,99999999' 
WAVCIS,ioos:station:WAVCIS:CSI16:1,2009-09-04T18:00:00Z,29.4012,-89.0355,10.0,4.107,55.0,,'11111222,11111222,99999999' 
WAVCIS,ioos:station:WAVCIS:CSI16:1,2009-09-04T19:00:00Z,29.4012,-89.0355,10.0,5.098,84.0,,'11111222,11111222,99999999' 
WAVCIS,ioos:station:WAVCIS:CSI16:1,2009-09-04T20:00:00Z,29.4012,-89.0355,10.0,8.69,90.0,,'11111222,11111222,99999999' 
WAVCIS,ioos:station:WAVCIS:CSI16:1,2009-09-04T21:00:00Z,29.4012,-89.0355,10.0,5.789,96.0,,'11111222,11111222,99999999' 
WAVCIS,ioos:station:WAVCIS:CSI16:1,2009-09-04T22:00:00Z,29.4012,-89.0355,10.0,5.358,111.0,,'11111222,11111222,99999999' 
WAVCIS,ioos:station:WAVCIS:CSI16:1,2009-09-04T23:00:00Z,29.4012,-89.0355,10.0,4.975,98.0,,'11111222,11111222,99999999' 
WAVCIS,ioos:station:WAVCIS:CSI16:1,2009-09-05T00:00:00Z,29.4012,-89.0355,10.0,5.269,93.0,,'11111222,11111222,99999999' 
WAVCIS,ioos:station:WAVCIS:CSI16:1,2009-09-05T01:00:00Z,29.4012,-89.0355,10.0,4.798,79.0,,'11111222,11111222,99999999' 
WAVCIS,ioos:station:WAVCIS:CSI16:1,2009-09-05T02:00:00Z,29.4012,-89.0355,10.0,4.329,73.0,,'11111222,11111222,99999999' 
WAVCIS,ioos:station:WAVCIS:CSI16:1,2009-09-05T03:00:00Z,29.4012,-89.0355,10.0,7.42,116.0,,'11111222,11111222,99999999' 
WAVCIS,ioos:station:WAVCIS:CSI16:1,2009-09-05T04:00:00Z,29.4012,-89.0355,10.0,7.06,124.0,,'11111222,11111222,99999999' 
WAVCIS,ioos:station:WAVCIS:CSI16:1,2009-09-05T05:00:00Z,29.4012,-89.0355,10.0,7.18,130.0,,'11111222,11111222,99999999' 
WAVCIS,ioos:station:WAVCIS:CSI16:1,2009-09-05T06:00:00Z,29.4012,-89.0355,10.0,9.53,162.0,,'11111222,11111222,99999999' 
WAVCIS,ioos:station:WAVCIS:CSI16:1,2009-09-05T07:00:00Z,29.4012,-89.0355,10.0,9.98,167.0,,'11111222,11111222,99999999' 
WAVCIS,ioos:station:WAVCIS:CSI16:1,2009-09-05T08:00:00Z,29.4012,-89.0355,10.0,7.8,166.0,,'11111222,11111222,99999999' 
WAVCIS,ioos:station:WAVCIS:CSI16:1,2009-09-05T09:00:00Z,29.4012,-89.0355,10.0,7.0,162.0,,'11111222,11111222,99999999' 
WAVCIS,ioos:station:WAVCIS:CSI16:1,2009-09-05T10:00:00Z,29.4012,-89.0355,10.0,8.54,193.0,,'11111222,11111222,99999999' 
WAVCIS,ioos:station:WAVCIS:CSI16:1,2009-09-05T11:00:00Z,29.4012,-89.0355,10.0,3.508,176.0,,'11111222,11111222,99999999' 
WAVCIS,ioos:station:WAVCIS:CSI16:1,2009-09-05T12:00:00Z,29.4012,-89.0355,10.0,2.195,208.0,,'11111222,11111222,99999999' 
WAVCIS,ioos:station:WAVCIS:CSI16:1,2009-09-05T13:00:00Z,29.4012,-89.0355,10.0,4.576,212.0,,'11111222,11111222,99999999' 
WAVCIS,ioos:station:WAVCIS:CSI16:1,2009-09-05T14:00:00Z,29.4012,-89.0355,10.0,4.692,207.0,,'11111222,11111222,99999999' 
WAVCIS,ioos:station:WAVCIS:CSI16:1,2009-09-05T15:00:00Z,29.4012,-89.0355,10.0,3.906,227.0,,'11111222,11111222,99999999' 
WAVCIS,ioos:station:WAVCIS:CSI16:1,2009-09-05T16:00:00Z,29.4012,-89.0355,10.0,2.975,182.0,,'11111222,11111222,99999999' 
WAVCIS,ioos:station:WAVCIS:CSI16:1,2009-09-05T17:00:00Z,29.4012,-89.0355,10.0,4.079,216.0,,'11111222,11111222,99999999' 
WAVCIS,ioos:station:WAVCIS:CSI16:1,2009-09-05T18:00:00Z,29.4012,-89.0355,10.0,3.119,176.0,,'11111222,11111222,99999999' 
WAVCIS,ioos:station:WAVCIS:CSI16:1,2009-09-05T19:00:00Z,29.4012,-89.0355,10.0,2.496,187.0,,'11111222,11111222,99999999' 
WAVCIS,ioos:station:WAVCIS:CSI16:1,2009-09-05T20:00:00Z,29.4012,-89.0355,10.0,4.052,175.0,,'11111222,11111222,99999999' 
WAVCIS,ioos:station:WAVCIS:CSI16:1,2009-09-05T21:00:00Z,29.4012,-89.0355,10.0,4.802,173.0,,'11111222,11111222,99999999' 
WAVCIS,ioos:station:WAVCIS:CSI16:1,2009-09-05T22:00:00Z,29.4012,-89.0355,10.0,4.152,152.0,,'11111222,11111222,99999999' 
WAVCIS,ioos:station:WAVCIS:CSI16:1,2009-09-05T23:00:00Z,29.4012,-89.0355,10.0,4.184,153.0,,'11111222,11111222,99999999' 
WAVCIS,ioos:station:WAVCIS:CSI16:1,2009-09-06T00:00:00Z,29.4012,-89.0355,10.0,5.706,145.0,,'11111222,11111222,99999999' 
WAVCIS,ioos:station:WAVCIS:CSI16:1,2009-09-06T01:00:00Z,29.4012,-89.0355,10.0,6.033,145.0,,'11111222,11111222,99999999' 
WAVCIS,ioos:station:WAVCIS:CSI16:1,2009-09-06T02:00:00Z,29.4012,-89.0355,10.0,6.684,141.0,,'11111222,11111222,99999999' 
WAVCIS,ioos:station:WAVCIS:CSI16:1,2009-09-06T03:00:00Z,29.4012,-89.0355,10.0,6.353,141.0,,'11111222,11111222,99999999' 
WAVCIS,ioos:station:WAVCIS:CSI16:1,2009-09-06T04:00:00Z,29.4012,-89.0355,10.0,7.05,148.0,,'11111222,11111222,99999999' 
WAVCIS,ioos:station:WAVCIS:CSI16:1,2009-09-06T05:00:00Z,29.4012,-89.0355,10.0,6.535,146.0,,'11111222,11111222,99999999' 
WAVCIS,ioos:station:WAVCIS:CSI16:1,2009-09-06T06:00:00Z,29.4012,-89.0355,10.0,6.945,156.0,,'11111222,11111222,99999999' 
WAVCIS,ioos:station:WAVCIS:CSI16:1,2009-09-06T07:00:00Z,29.4012,-89.0355,10.0,6.18,157.0,,'11111222,11111222,99999999' 
WAVCIS,ioos:station:WAVCIS:CSI16:1,2009-09-06T08:00:00Z,29.4012,-89.0355,10.0,6.167,161.0,,'11111222,11111222,99999999' 
WAVCIS,ioos:station:WAVCIS:CSI16:1,2009-09-06T09:00:00Z,29.4012,-89.0355,10.0,5.656,156.0,,'11111222,11111222,99999999' 
WAVCIS,ioos:station:WAVCIS:CSI16:1,2009-09-06T10:00:00Z,29.4012,-89.0355,10.0,4.786,160.0,,'11111222,11111222,99999999' 
WAVCIS,ioos:station:WAVCIS:CSI16:1,2009-09-06T11:00:00Z,29.4012,-89.0355,10.0,3.79,174.0,,'11111222,11111222,99999999' 
WAVCIS,ioos:station:WAVCIS:CSI16:1,2009-09-06T12:00:00Z,29.4012,-89.0355,10.0,3.413,160.0,,'11111222,11111222,99999999' 
WAVCIS,ioos:station:WAVCIS:CSI16:1,2009-09-06T13:00:00Z,29.4012,-89.0355,10.0,2.587,160.0,,'11111222,11111222,99999999' 
WAVCIS,ioos:station:WAVCIS:CSI16:1,2009-09-06T14:00:00Z,29.4012,-89.0355,10.0,2.216,149.0,,'11111222,11111222,99999999' 
WAVCIS,ioos:station:WAVCIS:CSI16:1,2009-09-06T15:00:00Z,29.4012,-89.0355,10.0,1.687,112.0,,'11111222,11111222,99999999' 
WAVCIS,ioos:station:WAVCIS:CSI16:1,2009-09-06T16:00:00Z,29.4012,-89.0355,10.0,2.305,111.0,,'11111222,11111222,99999999' 
WAVCIS,ioos:station:WAVCIS:CSI16:1,2009-09-06T17:00:00Z,29.4012,-89.0355,10.0,11.5,228.0,,'11111222,11111222,99999999' 
WAVCIS,ioos:station:WAVCIS:CSI16:1,2009-09-06T18:00:00Z,29.4012,-89.0355,10.0,3.113,181.0,,'11111222,11111222,99999999' 
WAVCIS,ioos:station:WAVCIS:CSI16:1,2009-09-06T19:00:00Z,29.4012,-89.0355,10.0,1.897,349.0,,'11111222,11111222,99999999' 
WAVCIS,ioos:station:WAVCIS:CSI16:1,2009-09-06T20:00:00Z,29.4012,-89.0355,10.0,7.42,90.0,,'11111222,11111222,99999999' 
WAVCIS,ioos:station:WAVCIS:CSI16:1,2009-09-06T21:00:00Z,29.4012,-89.0355,10.0,7.77,121.0,,'11111222,11111222,99999999' 
WAVCIS,ioos:station:WAVCIS:CSI16:1,2009-09-06T22:00:00Z,29.4012,-89.0355,10.0,7.15,132.0,,'11111222,11111222,99999999' 
WAVCIS,ioos:station:WAVCIS:CSI16:1,2009-09-06T23:00:00Z,29.4012,-89.0355,10.0,5.52,143.0,,'11111222,11111222,99999999' 
WAVCIS,ioos:station:WAVCIS:CSI16:1,2009-09-07T00:00:00Z,29.4012,-89.0355,10.0,6.261,156.0,,'11111222,11111222,99999999' 
WAVCIS,ioos:station:WAVCIS:CSI16:1,2009-09-07T01:00:00Z,29.4012,-89.0355,10.0,5.776,172.0,,'11111222,11111222,99999999' 
WAVCIS,ioos:station:WAVCIS:CSI16:1,2009-09-07T02:00:00Z,29.4012,-89.0355,10.0,5.732,154.0,,'11111222,11111222,99999999' 
WAVCIS,ioos:station:WAVCIS:CSI16:1,2009-09-07T03:00:00Z,29.4012,-89.0355,10.0,4.68,153.0,,'11111222,11111222,99999999' 
WAVCIS,ioos:station:WAVCIS:CSI16:1,2009-09-07T04:00:00Z,29.4012,-89.0355,10.0,4.896,148.0,,'11111222,11111222,99999999' 
WAVCIS,ioos:station:WAVCIS:CSI16:1,2009-09-07T05:00:00Z,29.4012,-89.0355,10.0,4.907,151.0,,'11111222,11111222,99999999' 
WAVCIS,ioos:station:WAVCIS:CSI16:1,2009-09-07T06:00:00Z,29.4012,-89.0355,10.0,4.414,147.0,,'11111222,11111222,99999999' 
WAVCIS,ioos:station:WAVCIS:CSI16:1,2009-09-07T07:00:00Z,29.4012,-89.0355,10.0,3.444,147.0,,'11111222,11111222,99999999' 
WAVCIS,ioos:station:WAVCIS:CSI16:1,2009-09-07T08:00:00Z,29.4012,-89.0355,10.0,4.958,105.0,,'11111222,11111222,99999999' 
WAVCIS,ioos:station:WAVCIS:CSI16:1,2009-09-07T09:00:00Z,29.4012,-89.0355,10.0,6.451,151.0,,'11111222,11111222,99999999' 
WAVCIS,ioos:station:WAVCIS:CSI16:1,2009-09-07T10:00:00Z,29.4012,-89.0355,10.0,3.281,158.0,,'11111222,11111222,99999999' 
WAVCIS,ioos:station:WAVCIS:CSI16:1,2009-09-07T11:00:00Z,29.4012,-89.0355,10.0,1.701,81.0,,'11111222,11111222,99999999' 
WAVCIS,ioos:station:WAVCIS:CSI16:1,2009-09-07T12:00:00Z,29.4012,-89.0355,10.0,0.473,148.0,,'11111222,11111222,99999999' 
WAVCIS,ioos:station:WAVCIS:CSI16:1,2009-09-07T13:00:00Z,29.4012,-89.0355,10.0,1.156,119.0,,'11111222,11111222,99999999' 
WAVCIS,ioos:station:WAVCIS:CSI16:1,2009-09-07T14:00:00Z,29.4012,-89.0355,10.0,1.984,82.0,,'11111222,11111222,99999999' 
WAVCIS,ioos:station:WAVCIS:CSI16:1,2009-09-07T15:00:00Z,29.4012,-89.0355,10.0,2.733,121.0,,'11111222,11111222,99999999' 
WAVCIS,ioos:station:WAVCIS:CSI16:1,2009-09-07T16:00:00Z,29.4012,-89.0355,10.0,2.477,178.0,,'11111222,11111222,99999999' 
WAVCIS,ioos:station:WAVCIS:CSI16:1,2009-09-07T17:00:00Z,29.4012,-89.0355,10.0,1.61,152.0,,'11111222,11111222,99999999' 
WAVCIS,ioos:station:WAVCIS:CSI16:1,2009-09-07T18:00:00Z,29.4012,-89.0355,10.0,1.608,61.0,,'11111222,11111222,99999999' 
WAVCIS,ioos:station:WAVCIS:CSI16:1,2009-09-07T19:00:00Z,29.4012,-89.0355,10.0,2.262,106.0,,'11111222,11111222,99999999' 
WAVCIS,ioos:station:WAVCIS:CSI16:1,2009-09-07T20:00:00Z,29.4012,-89.0355,10.0,3.395,103.0,,'11111222,11111222,99999999' 
WAVCIS,ioos:station:WAVCIS:CSI16:1,2009-09-07T21:00:00Z,29.4012,-89.0355,10.0,3.391,126.0,,'11111222,11111222,99999999' 
WAVCIS,ioos:station:WAVCIS:CSI16:1,2009-09-07T22:00:00Z,29.4012,-89.0355,10.0,3.616,119.0,,'11111222,11111222,99999999' 
WAVCIS,ioos:station:WAVCIS:CSI16:1,2009-09-07T23:00:00Z,29.4012,-89.0355,10.0,3.774,121.0,,'11111222,11111222,99999999' 
WAVCIS,ioos:station:WAVCIS:CSI16:1,2009-09-08T00:00:00Z,29.4012,-89.0355,10.0,5.125,113.0,,'11111222,11111222,99999999' 
WAVCIS,ioos:station:WAVCIS:CSI16:1,2009-09-08T01:00:00Z,29.4012,-89.0355,10.0,9.87,160.0,,'11111222,11111222,99999999' 
WAVCIS,ioos:station:WAVCIS:CSI16:1,2009-09-08T02:00:00Z,29.4012,-89.0355,10.0,5.367,161.0,,'11111222,11111222,99999999' 
WAVCIS,ioos:station:WAVCIS:CSI16:1,2009-09-08T03:00:00Z,29.4012,-89.0355,10.0,3.517,156.0,,'11111222,11111222,99999999' 
WAVCIS,ioos:station:WAVCIS:CSI16:1,2009-09-08T04:00:00Z,29.4012,-89.0355,10.0,3.088,156.0,,'11111222,11111222,99999999' 
WAVCIS,ioos:station:WAVCIS:CSI16:1,2009-09-08T05:00:00Z,29.4012,-89.0355,10.0,2.116,154.0,,'11111222,11111222,99999999' 
WAVCIS,ioos:station:WAVCIS:CSI16:1,2009-09-08T06:00:00Z,29.4012,-89.0355,10.0,2.453,139.0,,'11111222,11111222,99999999' 
WAVCIS,ioos:station:WAVCIS:CSI16:1,2009-09-08T07:00:00Z,29.4012,-89.0355,10.0,2.731,115.0,,'11111222,11111222,99999999' 
WAVCIS,ioos:station:WAVCIS:CSI16:1,2009-09-08T08:00:00Z,29.4012,-89.0355,10.0,3.012,119.0,,'11111222,11111222,99999999' 
WAVCIS,ioos:station:WAVCIS:CSI16:1,2009-09-08T09:00:00Z,29.4012,-89.0355,10.0,3.334,129.0,,'11111222,11111222,99999999' 
WAVCIS,ioos:station:WAVCIS:CSI16:1,2009-09-08T10:00:00Z,29.4012,-89.0355,10.0,3.811,117.0,,'11111222,11111222,99999999' 
WAVCIS,ioos:station:WAVCIS:CSI16:1,2009-09-08T11:00:00Z,29.4012,-89.0355,10.0,3.136,108.0,,'11111222,11111222,99999999' 
WAVCIS,ioos:station:WAVCIS:CSI16:1,2009-09-08T12:00:00Z,29.4012,-89.0355,10.0,3.35,112.0,,'11111222,11111222,99999999' 
WAVCIS,ioos:station:WAVCIS:CSI16:1,2009-09-08T13:00:00Z,29.4012,-89.0355,10.0,4.227,100.0,,'11111222,11111222,99999999' 
WAVCIS,ioos:station:WAVCIS:CSI16:1,2009-09-08T14:00:00Z,29.4012,-89.0355,10.0,5.404,78.0,,'11111222,11111222,99999999' 
WAVCIS,ioos:station:WAVCIS:CSI16:1,2009-09-08T15:00:00Z,29.4012,-89.0355,10.0,8.36,91.0,,'11111222,11111222,99999999' 
WAVCIS,ioos:station:WAVCIS:CSI16:1,2009-09-08T16:00:00Z,29.4012,-89.0355,10.0,7.82,114.0,,'11111222,11111222,99999999' 
WAVCIS,ioos:station:WAVCIS:CSI16:1,2009-09-08T17:00:00Z,29.4012,-89.0355,10.0,7.1,134.0,,'11111222,11111222,99999999' 
WAVCIS,ioos:station:WAVCIS:CSI16:1,2009-09-08T18:00:00Z,29.4012,-89.0355,10.0,6.645,137.0,,'11111222,11111222,99999999' 
WAVCIS,ioos:station:WAVCIS:CSI16:1,2009-09-08T19:00:00Z,29.4012,-89.0355,10.0,6.548,139.0,,'11111222,11111222,99999999' 
WAVCIS,ioos:station:WAVCIS:CSI16:1,2009-09-08T20:00:00Z,29.4012,-89.0355,10.0,5.954,128.0,,'11111222,11111222,99999999' 
WAVCIS,ioos:station:WAVCIS:CSI16:1,2009-09-08T21:00:00Z,29.4012,-89.0355,10.0,5.219,143.0,,'11111222,11111222,99999999' 
WAVCIS,ioos:station:WAVCIS:CSI16:1,2009-09-08T22:00:00Z,29.4012,-89.0355,10.0,4.808,118.0,,'11111222,11111222,99999999' 
WAVCIS,ioos:station:WAVCIS:CSI16:1,2009-09-08T23:00:00Z,29.4012,-89.0355,10.0,4.536,111.0,,'11111222,11111222,99999999' 
WAVCIS,ioos:station:WAVCIS:CSI16:1,2009-09-09T00:00:00Z,29.4012,-89.0355,10.0,5.044,126.0,,'11111222,11111222,99999999' 
WAVCIS,ioos:station:WAVCIS:CSI16:1,2009-09-09T01:00:00Z,29.4012,-89.0355,10.0,5.836,122.0,,'11111222,11111222,99999999' 
WAVCIS,ioos:station:WAVCIS:CSI16:1,2009-09-09T02:00:00Z,29.4012,-89.0355,10.0,5.78,128.0,,'11111222,11111222,99999999' 
WAVCIS,ioos:station:WAVCIS:CSI16:1,2009-09-09T03:00:00Z,29.4012,-89.0355,10.0,5.062,134.0,,'11111222,11111222,99999999' 
WAVCIS,ioos:station:WAVCIS:CSI16:1,2009-09-09T04:00:00Z,29.4012,-89.0355,10.0,4.886,121.0,,'11111222,11111222,99999999' 
WAVCIS,ioos:station:WAVCIS:CSI16:1,2009-09-09T05:00:00Z,29.4012,-89.0355,10.0,5.521,118.0,,'11111222,11111222,99999999' 